When you browse on this site, cookies collect data to enhance your experience and personalize the content and advertising you see.
Visit our Privacy Policy to learn more. By continuing to use the site, you agree to this use of cookies and data.
  • In Italy
  • List of Countries
  • For 7 days
  • Water Temperature
  • Satellite Maps
  • Weather Map
  • Weather Widgets
  • user-avatar
    Login

    Hourly Weather Lozenec

    Today, 10 December, Monday

    Time Temperature Precipitation Wind Pressure Humidity
    00:00 +6°C° 0 mm 2 mps 752 mmHg 93%
    01:00 +5°C° 0 mm 2 mps 752 mmHg 92%
    02:00 +4°C° 0 mm 3 mps 752 mmHg 91%
    03:00 +5°C° 0 mm 2 mps 752 mmHg 89%
    04:00 +5°C° 0 mm 2 mps 752 mmHg 87%
    05:00 +4°C° 0 mm 2 mps 752 mmHg 85%
    06:00 +4°C° 0 mm 2 mps 752 mmHg 84%
    07:00 +5°C° 0 mm 2 mps 752 mmHg 83%
    08:00 +6°C° 0 mm 1 mps 752 mmHg 82%
    09:00 +6°C° 0 mm 2 mps 752 mmHg 78%
    10:00 +8°C° 0 mm 2 mps 752 mmHg 74%
    11:00 +9°C° 0 mm 2 mps 752 mmHg 70%
    12:00 +9°C° 0 mm 2 mps 752 mmHg 70%
    13:00 +9°C° 0 mm 3 mps 751 mmHg 69%
    14:00 +9°C° 0 mm 3 mps 751 mmHg 69%
    15:00 +8°C° 0.2 mm 4 mps 750 mmHg 70%
    16:00 +7°C° 0.2 mm 5 mps 750 mmHg 70%
    17:00 +5°C° 0.2 mm 6 mps 750 mmHg 71%
    18:00 +5°C° 0.3 mm 6 mps 750 mmHg 73%
    19:00 +5°C° 0.3 mm 7 mps 750 mmHg 75%
    20:00 +4°C° 0.3 mm 7 mps 750 mmHg 77%
    21:00 +4°C° 0.3 mm 7 mps 750 mmHg 78%
    22:00 +4°C° 0.3 mm 7 mps 750 mmHg 80%
    23:00 +4°C° 0.3 mm 7 mps 750 mmHg 82%

    Tomorrow, 11 December, Tuesday

    Time Temperature Precipitation Wind Pressure Humidity
    00:00 +4°C° 0.4 mm 7 mps 751 mmHg 82%
    01:00 +3°C° 0.4 mm 7 mps 751 mmHg 82%
    02:00 +3°C° 0.4 mm 7 mps 752 mmHg 82%
    03:00 +3°C° 0.3 mm 7 mps 752 mmHg 81%
    04:00 +3°C° 0.3 mm 7 mps 752 mmHg 80%
    05:00 +3°C° 0.3 mm 7 mps 753 mmHg 79%
    06:00 +2°C° 0.2 mm 7 mps 753 mmHg 79%
    07:00 +2°C° 0.2 mm 7 mps 754 mmHg 79%
    08:00 +2°C° 0.2 mm 7 mps 754 mmHg 78%
    09:00 +3°C° 0 mm 7 mps 755 mmHg 75%
    10:00 +3°C° 0 mm 7 mps 755 mmHg 72%
    11:00 +4°C° 0 mm 7 mps 756 mmHg 69%
    12:00 +4°C° 0 mm 6 mps 756 mmHg 67%
    13:00 +5°C° 0 mm 6 mps 756 mmHg 65%
    14:00 +5°C° 0 mm 6 mps 756 mmHg 63%
    15:00 +5°C° 0 mm 5 mps 756 mmHg 66%
    16:00 +3°C° 0 mm 5 mps 757 mmHg 70%
    17:00 +4°C° 0 mm 4 mps 757 mmHg 73%
    18:00 +3°C° 0 mm 4 mps 757 mmHg 74%
    19:00 +2°C° 0 mm 5 mps 758 mmHg 75%
    20:00 +1°C° 0 mm 5 mps 758 mmHg 76%
    21:00 +1°C° 0 mm 5 mps 758 mmHg 75%
    22:00 +1°C° 0 mm 5 mps 758 mmHg 75%
    23:00 0°C° 0 mm 5 mps 758 mmHg 75%

    Day after tomorrow, 12 December, Wednesday

    Time Temperature Precipitation Wind Pressure Humidity
    00:00 0°C° 0 mm 5 mps 759 mmHg 75%
    01:00 0°C° 0 mm 5 mps 759 mmHg 75%
    02:00 0°C° 0 mm 5 mps 759 mmHg 75%
    03:00 0°C° 0 mm 5 mps 759 mmHg 75%
    04:00 0°C° 0 mm 5 mps 759 mmHg 75%
    05:00 0°C° 0 mm 5 mps 759 mmHg 75%
    06:00 0°C° 0 mm 5 mps 759 mmHg 74%
    07:00 0°C° 0 mm 5 mps 759 mmHg 74%
    08:00 0°C° 0 mm 5 mps 760 mmHg 73%
    09:00 +1°C° 0 mm 5 mps 760 mmHg 67%
    10:00 +2°C° 0 mm 5 mps 760 mmHg 62%
    11:00 +4°C° 0 mm 6 mps 761 mmHg 57%
    12:00 +5°C° 0 mm 5 mps 760 mmHg 56%
    13:00 +5°C° 0 mm 5 mps 760 mmHg 55%
    14:00 +6°C° 0 mm 5 mps 760 mmHg 54%
    15:00 +5°C° 0 mm 5 mps 760 mmHg 59%
    16:00 +3°C° 0 mm 4 mps 760 mmHg 64%
    17:00 +1°C° 0 mm 4 mps 761 mmHg 69%
    18:00 +1°C° 0 mm 4 mps 761 mmHg 69%
    19:00 +1°C° 0 mm 4 mps 761 mmHg 69%
    20:00 +1°C° 0 mm 3 mps 761 mmHg 69%
    21:00 0°C° 0 mm 4 mps 761 mmHg 68%
    22:00 0°C° 0 mm 4 mps 762 mmHg 67%
    23:00 0°C° 0 mm 4 mps 762 mmHg 66%

    13 December, Thursday

    Time Temperature Precipitation Wind Pressure Humidity
    00:00 0°C° 0 mm 4 mps 762 mmHg 67%
    01:00 0°C° 0 mm 4 mps 762 mmHg 69%
    02:00 0°C° 0 mm 5 mps 762 mmHg 71%
    03:00 0°C° 0 mm 5 mps 762 mmHg 72%
    04:00 0°C° 0 mm 4 mps 761 mmHg 74%
    05:00 -1°C° 0 mm 4 mps 761 mmHg 76%
    06:00 0°C° 0 mm 4 mps 762 mmHg 76%
    07:00 0°C° 0 mm 4 mps 762 mmHg 75%
    08:00 0°C° 0 mm 4 mps 762 mmHg 75%
    09:00 +1°C° 0 mm 4 mps 762 mmHg 70%
    10:00 +3°C° 0 mm 5 mps 762 mmHg 64%
    11:00 +6°C° 0 mm 5 mps 762 mmHg 58%
    12:00 +6°C° 0 mm 5 mps 762 mmHg 58%
    13:00 +7°C° 0 mm 5 mps 761 mmHg 58%
    14:00 +7°C° 0 mm 5 mps 761 mmHg 58%
    15:00 +6°C° 0 mm 5 mps 761 mmHg 65%
    16:00 +5°C° 0 mm 4 mps 761 mmHg 72%
    17:00 +3°C° 0 mm 4 mps 760 mmHg 79%
    18:00 +3°C° 0 mm 4 mps 761 mmHg 78%
    19:00 +3°C° 0 mm 3 mps 761 mmHg 77%
    20:00 +3°C° 0 mm 3 mps 761 mmHg 75%
    21:00 +3°C° 0 mm 3 mps 761 mmHg 76%
    22:00 +3°C° 0 mm 3 mps 761 mmHg 77%
    23:00 +3°C° 0 mm 2 mps 761 mmHg 77%

    14 December, Friday

    Time Temperature Precipitation Wind Pressure Humidity
    00:00 +3°C° 0 mm 2 mps 761 mmHg 79%
    01:00 +3°C° 0 mm 2 mps 760 mmHg 82%
    02:00 +3°C° 0 mm 2 mps 760 mmHg 84%
    03:00 +5°C° 0 mm 1 mps 760 mmHg 85%
    04:00 +5°C° 0 mm 1 mps 760 mmHg 86%
    05:00 +5°C° 0 mm 1 mps 760 mmHg 87%
    06:00 +6°C° 0.2 mm 1 mps 760 mmHg 88%
    07:00 +6°C° 0.2 mm 1 mps 760 mmHg 89%
    08:00 +6°C° 0.2 mm 1 mps 760 mmHg 89%
    09:00 +7°C° 0 mm 1 mps 760 mmHg 86%
    10:00 +7°C° 0 mm 2 mps 760 mmHg 83%
    11:00 +8°C° 0 mm 3 mps 760 mmHg 80%
    12:00 +9°C° 0 mm 3 mps 760 mmHg 79%
    13:00 +10°C° 0 mm 3 mps 759 mmHg 79%
    14:00 +10°C° 0 mm 4 mps 759 mmHg 78%
    15:00 +10°C° 0 mm 4 mps 759 mmHg 82%
    16:00 +8°C° 0 mm 4 mps 759 mmHg 86%
    17:00 +7°C° 0 mm 4 mps 758 mmHg 90%
    18:00 +7°C° 0.1 mm 4 mps 758 mmHg 91%
    19:00 +7°C° 0.1 mm 4 mps 758 mmHg 91%
    20:00 +7°C° 0.1 mm 5 mps 758 mmHg 91%
    21:00 +8°C° 0.1 mm 5 mps 757 mmHg 90%
    22:00 +8°C° 0.1 mm 5 mps 757 mmHg 90%
    23:00 +8°C° 0.1 mm 5 mps 757 mmHg 89%

    15 December, Saturday

    Time Temperature Precipitation Wind Pressure Humidity
    00:00 +8°C° 0.2 mm 5 mps 756 mmHg 90%
    01:00 +9°C° 0.2 mm 5 mps 756 mmHg 91%
    02:00 +9°C° 0.2 mm 5 mps 756 mmHg 92%
    03:00 +9°C° 0.3 mm 5 mps 755 mmHg 92%
    04:00 +10°C° 0.3 mm 4 mps 755 mmHg 93%
    05:00 +10°C° 0.3 mm 4 mps 755 mmHg 93%
    06:00 +10°C° 0.2 mm 4 mps 755 mmHg 93%
    07:00 +10°C° 0.2 mm 4 mps 755 mmHg 92%
    08:00 +10°C° 0.2 mm 4 mps 755 mmHg 92%
    09:00 +11°C° 0 mm 4 mps 755 mmHg 88%
    10:00 +12°C° 0 mm 4 mps 755 mmHg 84%
    11:00 +13°C° 0 mm 4 mps 755 mmHg 80%
    12:00 +14°C° 0 mm 4 mps 755 mmHg 78%
    13:00 +14°C° 0 mm 4 mps 754 mmHg 76%
    14:00 +14°C° 0 mm 4 mps 754 mmHg 74%
    15:00 +14°C° 0 mm 4 mps 754 mmHg 78%
    16:00 +13°C° 0 mm 4 mps 754 mmHg 81%
    17:00 +12°C° 0 mm 4 mps 754 mmHg 85%
    18:00 +12°C° 0.1 mm 4 mps 755 mmHg 85%
    19:00 +12°C° 0.1 mm 4 mps 755 mmHg 86%
    20:00 +12°C° 0.1 mm 4 mps 755 mmHg 87%
    21:00 +11°C° 0.1 mm 3 mps 755 mmHg 89%
    22:00 +11°C° 0.1 mm 3 mps 755 mmHg 90%
    23:00 +11°C° 0.1 mm 3 mps 755 mmHg 92%
    Show more